Location: Unspecified
(43.8044°N, 11.0278°E)
Time: 09:58:34
(UTC+02:00)

Cosmos 1674 - Visible Passes

Search period start: 22 October 2014 00:00
Search period end: 31 October 2014 23:00
Orbit: 514 x 540 km, 82.5° (Epoch: 21 October)

Date Brightness Start Highest point End Pass type
(mag) Time Alt. Az. Time Alt. Az. Time Alt. Az.
22 Oct 6.4 05:27:21 10° E 05:28:26 11° E 05:29:30 10° ENE visible
22 Oct 2.8 06:59:57 10° SSW 07:03:50 56° W 07:07:45 10° N visible
23 Oct 2.7 06:48:34 10° SSW 06:52:28 63° W 06:56:25 10° N visible
24 Oct 2.7 06:37:10 10° SSW 06:41:05 69° W 06:45:04 10° N visible
25 Oct 2.7 06:25:46 10° SSW 06:29:42 77° W 06:33:41 10° N visible
26 Oct 2.7 05:14:21 10° S 05:18:18 85° W 05:22:17 10° N visible
27 Oct 2.7 05:02:56 10° S 05:06:53 87° E 05:10:52 10° N visible
28 Oct 2.8 04:51:30 10° S 04:55:27 79° E 04:59:25 10° N visible
29 Oct 2.9 04:41:58 27° S 04:44:00 71° E 04:47:58 10° NNE visible
30 Oct 3.2 04:32:51 61° ENE 04:32:51 61° ENE 04:36:28 10° NNE visible
30 Oct 4.7 06:08:13 10° WNW 06:08:56 11° WNW 06:09:48 10° NW visible
31 Oct 4.5 04:22:58 28° NNE 04:22:58 28° NNE 04:24:58 10° NNE visible
31 Oct 4.8 05:58:17 11° NW 05:58:17 11° NW 05:58:50 10° NW visible
